Theta_e
308 308 308 308 308 308 308 308 308 309 309 309 309 310 310 311 311 311 312 313 312 312 312 311 311 313 313 313 314 313 309 310 311 310 313 312 312 313 313 314 316 318 317 317 318
307 307 307 308 308 308 308 308 308 308 309 309 309 310 310 311 311 312 312 313 313 313 312 312 312 313 314 314 313 310 307 309 308 308 312 313 313 313 313 313 315 316 317 317 318
307 307 308 308 308 308 308 308 308 308 309 309 309 309 310 311 312 314 314 313 313 313 312 312 313 314 314 314 313 308 308 308 310 311 313 313 312 313 313 311 315 316 317 317 316
308 308 308 308 308 308 308 308 308 308 308 308 309 309 310 311 310 313 311 310 311 312 312 313 313 315 313 312 314 312 311 310 312 313 313 313 313 312 312 315 316 316 315 316 316
308 308 308 309 309 309 309 309 309 308 308 308 308 309 309 311 312 313 313 312 311 311 312 313 314 315 312 313 313 312 312 313 313 313 313 313 313 313 313 316 315 315 316 315 315
309 309 309 309 309 309 309 309 309 309 309 308 308 309 309 310 311 314 315 315 311 311 313 314 315 315 313 312 311 312 313 313 314 314 314 313 312 313 314 315 315 315 315 315 315
309 309 309 309 309 309 309 309 309 309 309 309 308 309 309 309 310 312 315 316 313 312 313 314 314 314 314 312 313 312 313 310 312 312 312 313 312 311 315 315 315 315 315 315 316
307 308 309 309 309 309 308 309 309 309 309 309 308 308 309 310 310 310 315 316 315 312 311 312 313 314 314 313 312 311 309 313 310 310 312 312 313 311 314 313 315 314 314 314 315
310 308 307 308 308 308 308 308 309 308 308 308 308 308 309 309 310 310 312 315 315 314 313 313 313 313 313 310 310 308 310 311 310 310 310 310 312 311 314 313 313 315 315 315 315
317 314 309 307 307 307 308 308 308 308 308 308 308 309 309 311 311 311 313 315 314 314 314 314 313 308 306 309 310 309 311 309 311 310 310 310 310 310 313 313 313 314 316 316 316
319 320 317 313 309 307 308 308 309 309 310 309 309 308 311 310 312 313 313 314 314 313 311 311 310 311 311 308 308 307 309 310 308 309 311 310 309 311 311 311 311 314 316 316 317
319 320 319 319 317 313 311 311 314 313 316 314 310 310 310 312 313 314 314 314 313 311 309 309 310 309 309 308 310 310 311 310 308 308 309 309 309 309 310 311 312 313 314 316 317
315 316 319 320 319 318 317 315 316 317 317 317 315 316 311 310 313 314 314 314 310 308 308 309 310 309 310 309 310 309 310 310 311 309 308 308 309 308 308 309 312 313 314 314 315
317 316 317 321 319 320 318 319 318 320 318 318 316 317 316 313 312 313 314 314 310 311 308 309 310 310 310 310 310 311 308 309 311 312 311 309 313 311 310 310 309 314 315 316 316
314 315 316 316 318 319 320 320 321 319 320 315 315 315 314 314 312 312 313 313 310 310 310 311 310 310 311 310 309 311 308 309 310 310 310 310 312 310 309 311 312 313 314 314 315
309 313 316 316 318 318 319 321 321 322 323 317 314 313 311 312 310 311 311 312 311 310 310 309 309 309 310 309 309 307 309 308 306 308 313 310 312 310 311 311 311 312 314 313 314
306 308 313 316 315 316 318 318 321 322 318 316 315 312 313 311 310 310 310 309 311 313 312 310 310 309 310 310 309 310 311 312 311 311 315 308 310 313 311 309 309 312 313 312 314
305 306 306 310 315 314 316 318 317 315 319 312 312 312 315 311 310 309 310 311 309 310 309 313 313 309 308 311 311 309 310 312 311 312 312 309 313 314 309 310 312 310 311 311 314
301 304 305 305 307 311 312 314 315 314 314 316 315 316 314 313 311 309 309 309 309 307 313 311 312 308 307 309 311 309 312 310 312 296 308 311 310 310 308 308 309 310 311 314 315
296 299 300 301 304 306 308 314 313 314 314 315 320 318 318 314 313 309 308 309 311 307 310 312 314 308 308 309 309 310 308 313 309 312 311 313 312 314 314 311 310 309 311 314 314
298 296 299 303 305 307 307 308 311 312 314 317 318 319 318 316 315 310 312 310 308 309 310 310 312 310 308 308 310 309 310 310 310 309 312 311 317 308 311 310 310 309 313 312 314
299 296 303 305 306 305 306 307 309 311 313 315 316 317 318 317 316 315 315 313 311 309 310 310 313 316 309 307 306 308 310 309 313 311 308 310 318 308 309 309 309 310 312 313 314
298 299 302 306 303 303 305 306 308 310 313 313 313 314 316 316 317 316 313 311 311 310 311 311 314 317 316 313 309 310 309 312 310 309 311 314 318 305 306 308 309 310 311 312 313
299 298 299 302 303 302 303 305 306 307 309 312 314 314 315 316 315 317 316 313 310 310 312 313 312 316 319 317 311 311 308 309 313 315 314 315 317 313 310 309 309 310 311 311 312
299 298 298 298 298 301 303 305 305 306 307 308 309 311 313 313 313 314 313 313 313 312 312 313 312 312 314 310 310 311 310 310 312 313 316 317 314 315 313 309 310 312 312 313 313
298 299 299 298 300 297 299 301 302 304 307 308 308 308 309 311 311 308 311 311 312 311 312 311 312 310 313 313 311 313 311 309 310 312 312 314 314 315 314 314 311 314 315 314 314
298 298 298 298 297 299 298 299 300 299 300 304 306 307 307 308 308 307 306 308 308 311 311 311 309 312 314 311 313 315 314 314 310 310 311 313 313 313 310 309 311 313 313 313 314
Wind_Speed
12 11 10 9 9 8 7 7 6 5 5 5 4 5 5 4 5 5 3 4 5 4 4 4 3 3 3 4 3 4 4 2 5 6 5 7 6 6 7 6 11 12 8 5 13
12 11 10 9 8 7 7 6 6 6 5 5 5 5 5 5 5 5 4 5 6 5 5 5 4 4 3 3 3 4 4 8 5 5 3 5 7 9 5 7 9 13 17 11 11
11 11 11 9 8 7 6 6 5 5 5 5 5 5 5 4 4 2 4 5 6 7 7 6 5 5 3 2 1 3 5 4 3 5 3 3 4 7 7 4 14 19 20 19 16
11 10 10 10 8 7 6 6 5 5 6 6 6 5 5 2 3 2 3 3 5 7 8 7 6 4 3 3 2 1 1 4 1 4 3 3 3 4 15 14 9 12 16 18 22
11 11 10 9 9 8 7 6 6 6 6 6 6 6 5 3 3 5 5 3 3 7 9 8 7 5 5 3 3 2 1 3 4 4 5 5 9 8 17 19 20 17 15 17 22
13 12 11 10 10 9 8 8 7 7 7 7 6 5 5 3 4 7 8 4 4 7 8 7 6 5 6 3 3 1 2 5 5 5 6 4 3 3 7 13 23 21 21 20 21
15 15 14 13 11 11 10 9 8 8 8 8 7 6 8 8 5 7 10 7 7 7 8 6 6 4 6 3 2 1 3 6 5 3 4 4 6 10 27 24 20 18 22 24 24
15 15 15 15 14 12 12 11 9 9 9 8 7 7 6 7 10 10 10 10 9 8 7 6 5 5 3 6 5 3 4 3 2 3 2 6 10 9 6 14 24 24 25 25 26
11 13 14 16 16 14 13 13 11 9 9 8 7 5 5 6 11 12 13 10 9 7 7 6 5 4 5 5 4 6 3 4 8 7 2 3 8 6 5 8 16 18 21 24 26
10 10 11 13 14 15 13 11 11 10 9 8 10 4 11 5 9 11 13 11 8 9 6 4 3 4 3 3 5 6 4 4 5 2 2 4 14 13 22 18 25 24 24 25 27
13 9 9 10 12 12 11 7 6 5 13 8 5 5 3 9 6 8 15 14 9 7 5 2 4 7 16 6 3 5 4 4 5 4 4 8 10 17 20 19 28 35 38 38 37
13 15 13 9 9 10 9 6 5 1 5 13 20 15 11 7 6 11 15 12 8 5 6 4 7 12 6 6 5 4 3 5 6 3 6 8 13 13 21 20 30 35 40 45 42
10 9 13 14 12 13 12 10 5 1 3 8 17 18 25 21 9 15 21 11 5 6 8 8 5 3 8 5 6 5 6 5 8 3 3 5 8 8 8 16 30 40 45 45 46
11 9 10 14 16 18 17 12 6 3 1 6 7 10 18 16 7 15 23 11 4 12 8 7 4 6 4 4 7 6 9 5 2 2 5 1 8 5 7 10 8 33 36 38 36
16 18 14 14 4 18 19 13 12 5 4 3 3 3 13 13 15 12 28 13 9 8 7 8 9 6 6 8 8 5 6 6 3 3 4 2 1 6 1 7 17 19 28 22 21
9 11 17 13 15 9 18 22 20 4 11 1 3 3 5 2 3 6 10 4 5 5 2 3 1 6 7 2 5 7 5 5 4 2 5 9 8 4 5 9 6 12 16 4 3
8 9 10 16 17 6 8 15 7 9 1 3 3 3 1 4 3 4 7 7 8 5 11 2 5 3 4 6 3 3 6 2 3 1 8 3 3 7 7 8 8 10 8 5 4
10 9 10 13 17 15 18 7 4 3 4 3 3 3 5 5 2 3 6 6 6 3 3 9 8 11 8 12 8 9 8 6 7 4 5 1 8 6 9 19 29 22 20 17 12
16 13 10 8 14 13 8 4 2 3 4 7 3 3 4 3 4 4 6 5 9 11 10 6 7 1 3 2 10 7 7 5 2 2 2 5 8 7 10 11 12 10 7 8 8
7 10 12 11 8 10 2 5 7 3 1 2 7 6 8 6 6 7 7 5 6 12 4 5 4 0 1 3 2 5 7 3 2 3 5 5 6 7 6 9 7 5 9 7 6
4 3 4 6 13 6 4 5 4 7 4 2 2 7 5 6 6 5 4 3 6 4 19 4 4 1 3 6 10 4 5 2 4 4 5 2 8 8 9 8 7 7 13 9 10
2 1 2 14 4 3 3 5 7 6 6 3 1 4 5 7 6 8 10 8 6 7 10 7 2 11 9 3 2 1 4 6 5 5 4 2 15 4 5 2 10 10 10 12 10
3 4 7 17 4 4 3 1 5 4 5 8 10 7 2 3 3 6 5 2 11 7 8 7 4 2 2 1 0 5 5 13 3 3 9 6 13 1 3 2 5 6 10 14 9
5 1 5 13 3 4 3 4 4 7 4 5 4 8 6 6 4 2 2 3 4 4 2 12 6 7 9 3 5 6 8 13 18 7 10 16 24 6 4 5 7 14 13 14 14
11 5 5 3 4 4 1 2 4 5 8 8 4 9 4 4 7 10 11 3 5 3 2 2 3 5 14 4 2 5 7 14 19 27 13 31 16 30 13 8 18 14 15 18 22
7 5 5 3 4 7 10 8 8 5 1 3 11 2 6 14 14 5 4 6 7 4 8 6 5 4 4 10 7 9 8 11 18 24 20 29 24 21 12 23 11 27 29 24 24
15 11 4 6 5 5 5 5 5 9 11 19 8 2 5 7 6 10 16 16 13 8 7 6 4 4 15 8 10 10 25 15 11 14 19 22 33 24 7 8 15 27 29 29 31
Wind_Direction
184 186 192 199 199 201 204 206 213 221 231 240 248 260 268 277 284 280 249 226 218 213 210 218 206 159 141 134 114 127 69 200 224 155 240 170 186 190 195 197 194 203 214 207 188
187 186 190 195 205 207 213 217 224 230 237 249 258 268 273 281 282 273 235 239 227 231 218 206 187 165 118 109 103 102 121 218 206 193 223 200 195 187 180 200 221 227 227 220 203
197 191 189 197 202 213 221 227 236 248 254 257 265 273 279 294 295 243 222 243 240 230 215 197 175 153 111 112 123 147 185 200 230 224 226 202 215 193 195 217 219 227 233 227 223
205 208 201 198 203 213 220 234 247 256 263 272 277 279 275 260 189 181 178 190 207 199 194 179 160 129 105 148 144 155 211 188 242 211 190 197 213 212 220 229 241 248 244 236 233
215 215 222 220 212 216 225 235 246 259 268 274 282 289 287 253 234 188 169 144 169 187 191 172 159 148 154 158 145 149 237 231 257 241 236 248 241 241 251 248 250 253 254 242 236
225 228 226 234 238 232 234 242 250 261 272 280 282 286 273 245 238 211 199 184 177 174 172 164 165 154 129 134 148 157 256 274 268 243 241 231 261 248 252 250 247 248 251 251 245
234 234 235 235 242 250 246 247 255 263 271 278 287 285 269 254 241 218 213 212 204 186 172 161 148 149 140 120 126 77 328 323 250 242 240 225 281 236 254 255 259 257 251 249 249
234 236 237 241 240 248 257 255 255 262 269 275 281 292 264 245 237 226 216 215 212 202 190 173 162 132 106 119 34 52 49 350 298 164 254 168 272 271 264 253 255 258 254 252 249
230 234 238 240 242 238 247 260 264 261 263 267 271 257 258 236 231 219 210 208 196 186 174 171 165 110 118 88 15 7 229 209 311 205 126 168 271 264 277 274 270 264 260 258 256
234 231 232 238 240 242 240 244 258 264 256 255 247 254 233 210 216 208 201 189 183 179 151 166 115 79 44 111 223 200 212 239 242 201 176 214 262 267 261 271 274 272 269 264 262
237 241 232 230 235 238 239 244 247 244 225 219 205 188 171 212 204 202 198 188 170 161 152 109 109 191 218 185 132 137 182 231 251 248 193 233 247 267 269 263 262 266 266 262 261
215 222 230 238 231 228 221 201 201 200 299 240 240 231 227 207 195 199 185 174 166 160 117 49 224 228 103 165 172 159 178 249 275 249 187 273 255 254 262 253 253 258 262 264 265
234 212 217 220 238 234 214 208 207 283 279 264 232 234 231 228 220 201 184 178 140 138 188 180 205 144 157 154 160 211 192 214 229 327 247 311 276 241 279 252 260 261 262 263 263
230 221 218 213 223 228 230 208 177 121 350 256 219 227 210 206 241 209 196 173 177 193 162 230 209 154 165 191 164 238 206 187 197 76 252 203 287 263 250 253 254 262 262 263 268
228 237 228 229 232 214 223 200 187 146 289 228 171 205 171 179 140 185 184 194 164 174 145 231 171 174 183 196 167 232 134 167 160 186 343 204 219 267 34 258 256 265 270 285 285
241 232 219 221 223 215 208 195 168 154 231 195 110 146 139 132 72 103 167 149 142 125 261 233 174 169 197 118 160 141 84 56 52 90 271 198 194 226 189 214 264 265 282 331 34
249 243 222 198 228 249 178 186 175 196 78 179 181 168 157 143 113 139 160 175 170 149 222 126 211 187 158 88 37 146 111 294 316 357 244 17 240 259 270 237 229 248 272 285 333
255 246 246 233 207 216 218 232 196 215 156 98 117 86 199 161 193 131 127 191 247 111 111 193 260 168 191 197 172 197 165 174 213 215 275 26 241 241 234 254 254 268 264 283 302
260 255 253 240 239 234 238 195 220 228 182 139 99 140 222 216 160 147 206 218 197 174 189 173 263 242 155 141 157 189 203 192 52 89 1 226 285 285 270 276 269 260 265 263 276
291 264 256 240 232 229 337 211 197 201 342 127 195 197 183 185 159 171 178 211 220 189 182 209 273 163 186 122 11 168 168 86 326 203 253 262 271 229 248 248 256 222 236 233 147
301 267 188 186 164 160 203 236 209 217 213 160 233 209 193 175 187 189 212 273 211 195 197 151 146 185 105 213 173 151 205 170 138 157 186 293 261 215 223 210 191 191 163 160 141
152 303 145 160 158 216 196 191 183 177 180 212 69 286 228 182 184 194 214 222 183 156 169 203 174 235 203 206 236 344 237 162 146 217 242 168 264 167 214 145 165 169 185 166 152
192 252 176 181 197 210 241 272 197 178 182 173 194 191 326 241 214 222 182 240 182 183 175 175 194 184 266 103 283 207 201 211 118 96 213 162 261 323 345 41 213 177 188 185 196
183 221 227 208 199 156 161 220 202 210 242 244 227 191 181 210 216 339 275 49 86 39 201 140 169 212 235 206 143 188 192 204 209 219 228 232 245 231 182 244 246 231 218 219 244
195 223 200 197 245 221 239 251 199 206 218 191 238 226 194 227 226 230 225 234 239 157 82 352 225 224 251 331 315 197 202 211 209 226 213 252 240 252 232 220 230 238 254 255 258
200 185 188 156 179 170 209 227 216 242 310 233 237 203 231 239 240 264 222 204 228 169 170 166 249 198 250 269 241 251 241 219 222 237 237 253 259 255 227 232 248 260 261 264 269
226 229 178 201 170 178 199 178 200 214 256 248 269 313 280 280 346 320 314 290 274 251 202 180 185 201 260 233 246 247 234 231 228 235 224 242 246 261 231 207 235 255 256 262 271